Погода в Волочанке

Погода в Волочанке : погода сейчас, прогноз погоды и архив. Всё, что Вы хотите узнать о погоде в Волочанке!

Поиск расширенной информации на нашем сайте:

Другие новости

Новости СМИ2

Главная страница сайта

Новости сайта

03.07.2017

Напоминаем, что на нашем специализированном сайте Метеоцентр.Азия вы можете получить высокодетализированные автоматические прогнозы погоды по пунктам России, СНГ и мира в авиационном формате (включающие направление и скорость ветра, видимость, явления погоды, количество и форму облачности, нижнюю и верхнюю границу облачности).


Погода в Волочанке - сегодня

Время (UTC), дата Ветер
(°,м/с) 
Видим.   Явления Облачность Т
(°С)
Тd
(°С)
f(%) Тe
(°С)
Pmin
(гПа)
dP
(гПа)
Po
(мм)
O2
(г/м3)
Тmin Tmax R s Состояние
почвы
09 20.08.17 310 (СЗ) 10 км    9/8 600 м средняя 
[Sc|Ac As]
+6.2 +0.9 69 +4  1010.6  1.5  754  297           
12 20.08.17 300 (СЗ) 10 км    8/8 600 м средняя 
[Sc|Ac As]
+5.2 +0 69 +4  1011.9  1.3  755  299    +9.4  0.0     
15 20.08.17 270 (З) 10 км    9/9 600 м 
[Sc]
+3.2 +1.1 86 +2  1012.2  0.3  755  301           
18 20.08.17 240 (ЮЗ) 10 км    5/4 600 м верхняя 
[Sc|Ci fib]
+2.1 +1 92 +1  1012.1  -0.1  755  302           
21 20.08.17 230 (ЮЗ) 10 км    10/8 600 м средняя 
[Sc|Ac As]
+3.5 +2.5 93 +2  1012  -0.1  755  300           
00 21.08.17 230 (ЮЗ) 10 км    10/6 600 м средняя 
[Sc|Ac As]
+4.9 +3.5 91 +4  1011.7  -0.3  755  298  +1.8         
03 21.08.17 260 (З) 5{11}  20000 м    10/10 300 м 
[Frnb]
+7.3 +2.5 72 +6  1010.4  -1.2  754  296           
06 21.08.17 230 (ЮЗ) 5{11}  20000 м  в посл. час ливневой дождь  10/8 300 м кучево-дожд., средняя 
[Cb cap|Ac As]
+7.3 +3.8 78 +6  1009.5  -0.9  753  295           
09 21.08.17 290 (З) 10 км  слаб. дождь{ливн. осадки}  10/8 600 м средняя 
[Sc|As op]
+7 +5 87 +7  1008.2  -1.3  752  295           
12 21.08.17 120 (ЮВ) 4000 м  позёмок{ливн. осадки, дождь}  10/10 300 м 
[Ns]
+6.9 +6 94 +6  1006  -2.2  751  294    +9.2     
15 21.08.17 110 (В) 4000 м  дождь  10/10 300 м 
[Ns]
+6.5 +5.1 91 +6  1003  -3  749  294           
18 21.08.17 110 (В) 4000 м  дождь  10/10 300 м 
[Ns]
+6.1 +5.2 94 +5  998.3  -4.7  745  293           
21 21.08.17 110 (В) 10 км  слаб. дождь  10/10 600 м 
[Sc]
+5.9 +5.2 95 +4  994.6  -3.3  742  292           
00 22.08.17 110 (В) 10 км  в посл. час дождь  9/8 600 м средняя 
[Sc|Ac As]
+6.1 +5.4 95 +5  993.1  -1.5  741  291  +5.9       
03 22.08.17 020 (С) 10 км  слаб. дождь  10/10 600 м 
[Sc]
+7.1 +6.2 94 +5  993.8  0.8  742  290           
06 22.08.17 350 (С) 7{10}  10 км  слаб. дождь  10/10 600 м 
[Sc]
+7.9 +5.2 83 +6  996.8  744  291           
09 22.08.17 330 (СЗ) 7{11}  10 км  в посл. час морось{дождь}  10/10 300 м 
[Frnb]
+8 +4.8 80 +6  1001.2  4.3  747  292           
12 22.08.17 310 (СЗ) 5{10}  10 км  в посл. час морось{дождь}  10/10 300 м 
[St]
+7.6 +4.4 80 +6  1004  2.8  749  293    +8.6  0.3     
15 22.08.17 310 (СЗ) 10 км  слаб. ливневой дождь  10/9 300 м кучево-дожд., средняя 
[Cb cap|Ac As]
+5.9 +4.5 91 +4  1005.9  1.8  751  295           
18 22.08.17 280 (З) 10 км  {ливн. осадки}  10/10 600 м 
[Sc]
+4.7 +3.2 90 +3  1007.3  1.4  752  297           
21 22.08.17 270 (З) 10 км    8/3 600 м средняя, верхняя 
[Sc|Ac As|Cc]
+3.6 +2.1 90 +1  1007.6  0.3  752  299           
00 23.08.17 260 (З) 4000 м  дождь{морось}  10/10 300 м 
[St]
+3.9 +3.2 95 +1  1007.8  0.2  752  298  +3.4    0.7     
03 23.08.17 270 (З) 6-11{12}  10 км  слаб. дождь{морось}  10/10 600 м 
[Sc]
+5.6 +2.9 83 +3  1007.6  -0.2  752  296           
06 23.08.17 260 (З) 6-13{14}  10 км  {ливн. осадки, дождь}  9/9 600 м 
[Sc]
+6.8 +2.2 72 +5  1007.5  752  295           
09 23.08.17 270 (З) 7-11{14}  4000 м  дождь  10/10 300 м 
[Ns]
+5.6 +3.9 89 +3  1007.8  0.2  752  296           
Время (UTC), дата Ветер
(°,м/с) 
Видим.   Явления Облачность Т
(°С)
Тd
(°С)
f(%) Тe
(°С)
Pmin
(гПа)
dP
(гПа)
Po
(мм)
O2
(г/м3)
Тmin Tmax R s Состояние
почвы

Для получения пояснительной информации подведите курсор к названию столбца.

ПОГОДА в Волочанке - архив

Всё, что Вы хотите узнать о погоде в Волочанке - удобно и подробно!

Выберите нужную дату (начиная с 1 января 2015* года) и нажмите кнопку "Найти".
Будут отображены архивные сводки погоды по пункту Волочанка, начиная с указанной даты.


Отображать данные в формате CSV (для использования в таблицах Excel)


Внимание! Наш архив погоды предназначен исключительно для личного некоммерческого использования в познавательных целях. Если Вам необходимы официальные справки о состоянии погоды (для производственных, юридических, коммерческих и т.п. целей), обращайтесь в органы Росгидромета.

*Примечание: данная дата относится к архиву по метеостанциям СССР (Россия, СНГ, Балтия).
Архив по метеостанциям Зарубежной Европы и Азии (кроме Китая) хранится 10 дней, по другим регионам земного шара (Китай, Африка, Америка, Австралия, Океания) - 1 день.

Волочанка - район местоположения метеостанции


Название, широта, долгота, высота метеостанции:
Волочанка 71°ш. 94.6°д. 37 м над ур. моря [Российская Федерация]

Дополнительная информация

В oтличие oт бoльшинства пoгoдных сайтoв мы публикуем пoдрoбную метеoинфoрмацию в детальнoм прoфессиoнальнoм фoрмате.

Характеристики температуры и влажнoсти вoздуха измеряются на высoте 2 м в тени вдали oт зданий и деревьев.
Скoрoсть ветра измеряется на высoте 10 м (на урoвне рoста челoвека скoрoсть ветра ниже в 1.5-2 раза). Если метеoстанция нахoдится в гoрoде или в лесу, тo скoрoсть ветра занижена на 2-4 м/с пo сравнению с oткрытым местoм. Скoрoсть ветра над акватoриями крупных рек и oзёр, а также на вершинах хoлмoв на 2-5 м/с выше, чем в oбычных услoвиях.
Атмoсфернoе давление в разных тoчках местнoсти мoжет значительнo oтличаться oт давления на метеoстанции, в зависимoсти oт услoвий рельефа (при пoдъёме на 10 м давление пoнижается примернo на 1 мм рт.ст.).